Weather Roundup
Issued by NWS

Home | Current Version | Previous Version | Graphics & Text | Print | Product List | Glossary Off
Versions: 1 2 3 4 5 6 7 8 9 10 11 12 13 14 15 16 17 18 19 20 21 22 23 24 25 26 27 28 29 30 31 32 33 34 35 36 37 38 39 40 41 42 43 44 45 46 47 48 49 50

000
NZUS93 KARX 260010
HRRWXR

CURRENT HOURLY OBSERVATIONS ACROSS
MUCH OF THE UPPER MISSISSIPPI VALLEY
NATIONAL WEATHER SERVICE LA CROSSE WI
600 PM CST SAT FEB 25 2017


...SOUTHEAST MINNESOTA...


CITY           SKY/WX    TMP DP  RH WIND       PRES   REMARKS
ROCHESTER      CLEAR     16  11  80 SW12      29.92F WCI   3
ROCHESTER/MAYO CLOUDY    23  14  68 SW12      29.93F WCI  11
WINONA           N/A     25  14  63 W10G17    29.96S WCI  15
AUSTIN         CLEAR     18  10  73 SW7       29.94S WCI   8
ALBERT LEA     MOCLDY    21  16  79 SW10      29.93F WCI  10
DODGE CENTER   NOT AVBL
PRESTON        CLEAR     19  12  73 SW10      29.94S WCI   8
OWATONNA       CLEAR     19  12  73 S10       29.92S WCI   8
FARIBAULT      CLOUDY    25  18  74 S9        29.92S WCI  15
$$

...ELSEWHERE IN MINNESOTA...


CITY           SKY/WX    TMP DP  RH WIND       PRES   REMARKS
MINNEAPOLIS    CLOUDY    32  17  54 SW13      29.87F WCI  22
INTNL FALLS    CLOUDY    20  15  81 S3        29.69F
DULUTH         PTCLDY    26  16  65 SW9       29.73F WCI  17
RED WING       CLOUDY    27  16  63 SW15      29.91S WCI  15
REDWOOD FALLS  CLOUDY    30  17  58 SW13      29.85F WCI  20
MANKATO          N/A     26  19  74 S13       29.90  WCI  15
WORTHINGTON    CLOUDY    25  17  72 S18       29.86F WCI  11
FAIRMONT       CLOUDY    24  18  77 S16       29.92F WCI  11
$$

...SOUTHWEST WISCONSIN...


CITY           SKY/WX    TMP DP  RH WIND       PRES   REMARKS
LA CROSSE      CLEAR     26  11  52 W9        29.96S WCI  17
PRAIRIE DU CHI CLEAR     25  12  58 W7        30.00S WCI  17
BOSCOBEL       CLEAR     26  12  55 W6        29.98S WCI  19
LONE ROCK      CLEAR     24  12  60 W7        29.97R WCI  16
PLATTEVILLE    CLEAR     23  16  72 W8        29.98R WCI  14
FORT MC COY    CLEAR     23  11  60 SW3       29.95S
CAMP DOUGLAS   CLEAR     20   8  60 W7        29.92R WCI  11
MAUSTON-NEW LI CLEAR     23  11  60 W5        29.92R WCI  16
VIROQUA        FAIR      21  11  65 W12       29.93S WCI   9
WIS DELLS      CLEAR     22  10  59 W3        29.93R
$$

...ELSEWHERE IN WISCONSIN...


CITY           SKY/WX    TMP DP  RH WIND       PRES   REMARKS
MILWAUKEE      PTCLDY    24  11  57 W8        29.93R WCI  15
MADISON        MOCLDY    22  13  68 W5        29.94R WCI  16
GREEN BAY      CLEAR     20  10  65 SW7       29.88R WCI  11
EAU CLAIRE     CLOUDY    26  12  55 SW13      29.88S WCI  15
BLACK RVR FLS  FAIR      23  11  60 SW3       29.92S
MEDFORD        CLEAR     20   6  55 SW8       29.83R WCI  10
WAUSAU         CLEAR     21   7  54 W14       29.83R WCI   8
WIS RAPIDS     CLEAR     22   8  55 W9        29.90R WCI  12
MARSHFIELD     CLEAR     20   7  57 W8        29.86R WCI  10
RICE LAKE      MOCLDY    28  14  56 CALM      29.85F
$$

...NORTHEAST IOWA...


CITY           SKY/WX    TMP DP  RH WIND       PRES   REMARKS
WATERLOO       PTCLDY    22  15  75 W7        30.01F WCI  13
DUBUQUE        CLEAR     23  14  68 W10       29.98S WCI  12
DECORAH        CLEAR     21  14  73 VRB5      29.96S WCI  15
MASON CITY     CLOUDY    21  12  68 SW10      29.97F WCI  10
CHARLES CITY   MOCLDY    21  14  73 SW6       29.98F WCI  14
OELWEIN        CLEAR     23  18  80 W10G16    30.00S WCI  12
$$

...ELSEWHERE IN IOWA...


CITY           SKY/WX    TMP DP  RH WIND       PRES   REMARKS
DES MOINES     MOCLDY    31  19  61 SW7       30.02F WCI  24
IOWA CITY      CLEAR     29  18  63 W13       30.06S WCI  19
FORT DODGE     CLOUDY    25  14  63 S10       29.98F WCI  15
MARSHALLTOWN   MOCLDY    24  17  74 SW7       30.01F WCI  16
CEDAR RAPIDS   CLEAR     24  17  74 W7        30.02S WCI  16
$$

...NORTHERN ILLINOIS...


CITY           SKY/WX    TMP DP  RH WIND       PRES   REMARKS
CHICAGO-OHARE  MOCLDY    27  14  58 W8        29.96R WCI  19
CHICAGO-MIDWAY MOCLDY    26  13  57 W14       29.98R WCI  14
MOLINE         CLOUDY    30  16  56 W12       30.04R WCI  20
ROCKFORD       MOCLDY    25  13  60 W9        30.00R WCI  15
PEORIA         PTCLDY    30  15  53 NW7       30.05R WCI  23
$$

NOTE: "FAIR" INDICATES FEW OR NO CLOUDS BELOW 12,000 FEET WITH NO
SIGNIFICANT WEATHER AND/OR OBSTRUCTIONS TO VISIBILITY. WIND
SPEEDS ARE IN MILES-PER-HOUR.




USA.gov is the U.S. government's official web portal to all federal, state and local government web resources and services.